Regional Weather Roundup
Issued by NWS

Home | Current Version | Previous Version | Graphics & Text | Print | Product List | Glossary On
Versions: 1 2 3 4 5 6 7 8 9 10 11 12 13 14 15 16 17 18 19 20 21 22 23 24 25 26 27
000
ASUS45 KCYS 272210
RWRWY

WYOMING REGIONAL WEATHER ROUNDUP
NATIONAL WEATHER SERVICE CHEYENNE WY
300 PM MST MON FEB 27 2017

NOTE:  "FAIR" INDICATES FEW OR NO CLOUDS BELOW 12,000 FEET
WITH NO SIGNIFICANT WEATHER AND/OR OBSTRUCTIONS TO VISIBILITY.

WYZ001-272300-
YELLOWSTONE NATIONAL PARK

CITY           SKY/WX    TMP DP  RH WIND       PRES   REMARKS
LK YELLOWSTONE   N/A     18   9  68 VRB5G17   29.48S WCI  11
W YELLOWSTONE  NOT AVBL

$$
WYZ002>013-054>058-071-098>099-272300-
NORTHERN WYOMING

CITY           SKY/WX    TMP DP  RH WIND       PRES   REMARKS
JACKSON        LGT SNOW  21  21 100 SE15      29.52R WCI   8
CODY           FAIR      32  14  47 SE12      29.50S WCI  23
GREYBULL       FAIR      37  17  44 SE8       29.53F WCI  31
WORLAND        FAIR      36  16  44 SE9       29.53S WCI  29
SHERIDAN       FAIR      31  18  58 S8        29.56F WCI  23
BUFFALO        FAIR      30  12  47 CALM      29.55S
GILLETTE       FAIR      37   9  31 E8        29.54S WCI  31
HULETT         FAIR      37  12  35 NE10      29.57S WCI  30
NEWCASTLE      FAIR      32  25  74 SE3       29.58R

$$
WYZ014>020-022>026-101>103-272300-
CENTRAL WYOMING

CITY           SKY/WX    TMP DP  RH WIND       PRES   REMARKS
BIG PINEY      PTSUNNY   18  15  88 S7        29.55F WCI   9
PINEDALE       CLOUDY    18  14  86 SE9       29.55F FOG     WCI   6
DUBOIS         CLOUDY    25   9  50 W13G22    29.45S WCI  13
LANDER         FAIR      25  16  68 E5        29.52S WCI  19
RIVERTON       FAIR      26  14  60 SE3       29.54R
CASPER         CLOUDY    31  23  72 W6        29.54R WCI  25
DOUGLAS        CLOUDY    27  23  85 E9        29.56R WCI  18

$$
WYZ021-027>030-104>119-272300-
SOUTHERN WYOMING

CITY           SKY/WX    TMP DP  RH WIND       PRES   REMARKS
EVANSTON       CLOUDY    22  12  65 W16       29.61R WCI   8
FORT BRIDGER   SNOW      23  22  96 W22G30    29.64S VSB 1/2 WCI   7
ROCK SPRINGS   CLOUDY    24  18  77 SW14      29.60R WCI  12
DIXON          SNOW      25  22  87 W3        29.65R VSB 1/4
RAWLINS        LGT SNOW  24  19  81 W12       29.57S VSB 1   WCI  13
SARATOGA       CLOUDY    23  21  93 W8        29.59R FOG     WCI  14
LARAMIE        MIX PCPN  24  20  84 N23G31    29.52R WCI   9
CHEYENNE       FAIR      40  20  44 SW9       29.51F WCI  34
TORRINGTON     CLOUDY    34  20  56 NW9       29.54S WCI  27
PINE BLUFFS    FAIR      50  12  22 SW12G26   29.51F

$$




USA.gov is the U.S. government's official web portal to all federal, state and local government web resources and services.